Year,Month,Day,Hour,Minute,Value (Times are PST for temperature in C)
2004,08,05,00,00,16.40
2004,08,05,00,01,16.40
2004,08,05,00,02,16.40
2004,08,05,00,03,16.40
2004,08,05,00,04,16.40
2004,08,05,00,05,16.40
2004,08,05,00,06,16.40
2004,08,05,00,07,16.40
2004,08,05,00,08,16.40
2004,08,05,00,09,16.40
2004,08,05,00,10,16.40
2004,08,05,00,11,16.40
2004,08,05,00,12,16.40
2004,08,05,00,13,16.40
2004,08,05,00,14,16.30
2004,08,05,00,15,16.30
2004,08,05,00,16,16.30
2004,08,05,00,17,16.30
2004,08,05,00,18,16.30
2004,08,05,00,19,16.30
2004,08,05,00,20,16.30
2004,08,05,00,21,16.30
2004,08,05,00,22,16.30
2004,08,05,00,23,16.20
2004,08,05,00,24,16.10
2004,08,05,00,25,16.10
2004,08,05,00,26,16.10
2004,08,05,00,27,16.00
2004,08,05,00,28,16.10
2004,08,05,00,29,16.10
2004,08,05,00,30,16.10
2004,08,05,00,31,16.10
2004,08,05,00,32,16.10
2004,08,05,00,33,16.10
2004,08,05,00,34,16.10
2004,08,05,00,35,16.10
2004,08,05,00,36,16.00
2004,08,05,00,37,15.90
2004,08,05,00,38,15.80
2004,08,05,00,39,15.80
2004,08,05,00,40,15.80
2004,08,05,00,41,15.80
2004,08,05,00,42,15.80
2004,08,05,00,43,15.90
2004,08,05,00,44,15.90
2004,08,05,00,45,15.90
2004,08,05,00,46,16.00
2004,08,05,00,47,16.10
2004,08,05,00,48,16.00
2004,08,05,00,49,15.90
2004,08,05,00,50,15.80
2004,08,05,00,51,15.90
2004,08,05,00,52,15.80
2004,08,05,00,53,15.90
2004,08,05,00,54,15.90
2004,08,05,00,55,15.90
2004,08,05,00,56,16.00
2004,08,05,00,57,16.10
2004,08,05,00,58,16.10
2004,08,05,00,59,16.00
2004,08,05,01,00,15.90
2004,08,05,01,01,15.90
2004,08,05,01,02,15.90
2004,08,05,01,03,15.90
2004,08,05,01,04,15.90
2004,08,05,01,05,15.90
2004,08,05,01,06,15.90
2004,08,05,01,07,15.90
2004,08,05,01,08,15.90
2004,08,05,01,09,15.90
2004,08,05,01,10,15.80
2004,08,05,01,11,15.80
2004,08,05,01,12,15.80
2004,08,05,01,13,15.80
2004,08,05,01,14,15.80
2004,08,05,01,15,15.80
2004,08,05,01,16,15.80
2004,08,05,01,17,15.80
2004,08,05,01,18,15.80
2004,08,05,01,19,15.70
2004,08,05,01,20,15.70
2004,08,05,01,21,15.70
2004,08,05,01,22,15.60
2004,08,05,01,23,15.60
2004,08,05,01,24,15.50
2004,08,05,01,25,15.50
2004,08,05,01,26,15.50
2004,08,05,01,27,15.50
2004,08,05,01,28,15.50
2004,08,05,01,29,15.50
2004,08,05,01,30,15.50
2004,08,05,01,31,15.50
2004,08,05,01,32,15.50
2004,08,05,01,33,15.50
2004,08,05,01,34,15.50
2004,08,05,01,35,15.50
2004,08,05,01,36,15.50
2004,08,05,01,37,15.50
2004,08,05,01,38,15.40
2004,08,05,01,39,15.40
2004,08,05,01,40,15.50
2004,08,05,01,41,15.50
2004,08,05,01,42,15.50
2004,08,05,01,43,15.60
2004,08,05,01,44,15.60
2004,08,05,01,45,15.60
2004,08,05,01,46,15.60
2004,08,05,01,47,15.60
2004,08,05,01,48,15.60
2004,08,05,01,49,15.60
2004,08,05,01,50,15.60
2004,08,05,01,51,15.50
2004,08,05,01,52,15.50
2004,08,05,01,53,15.60
2004,08,05,01,54,15.60
2004,08,05,01,55,15.60
2004,08,05,01,56,15.60
2004,08,05,01,57,15.70
2004,08,05,01,58,15.70
2004,08,05,01,59,15.70
2004,08,05,02,00,15.60
2004,08,05,02,01,15.60
2004,08,05,02,02,15.60
2004,08,05,02,03,15.70
2004,08,05,02,04,15.70
2004,08,05,02,05,15.70
2004,08,05,02,06,15.80
2004,08,05,02,07,15.80
2004,08,05,02,08,15.80
2004,08,05,02,09,15.90
2004,08,05,02,10,15.90
2004,08,05,02,11,15.90
2004,08,05,02,12,15.80
2004,08,05,02,13,15.80
2004,08,05,02,14,15.80
2004,08,05,02,15,15.80
2004,08,05,02,16,15.80
2004,08,05,02,17,15.80
2004,08,05,02,18,15.80
2004,08,05,02,19,15.80
2004,08,05,02,20,15.80
2004,08,05,02,21,15.80
2004,08,05,02,22,15.80
2004,08,05,02,23,15.80
2004,08,05,02,24,15.80
2004,08,05,02,25,15.80
2004,08,05,02,26,15.80
2004,08,05,02,27,15.80
2004,08,05,02,28,15.80
2004,08,05,02,29,15.80
2004,08,05,02,30,15.80
2004,08,05,02,31,15.80
2004,08,05,02,32,15.80
2004,08,05,02,33,15.80
2004,08,05,02,34,15.80
2004,08,05,02,35,15.80
2004,08,05,02,36,15.80
2004,08,05,02,37,15.80
2004,08,05,02,38,15.80
2004,08,05,02,39,15.80
2004,08,05,02,40,15.80
2004,08,05,02,41,15.80
2004,08,05,02,42,15.80
2004,08,05,02,43,15.80
2004,08,05,02,44,15.80
2004,08,05,02,45,15.80
2004,08,05,02,46,15.80
2004,08,05,02,47,15.80
2004,08,05,02,48,15.80
2004,08,05,02,49,15.80
2004,08,05,02,50,15.80
2004,08,05,02,51,15.70
2004,08,05,02,52,15.70
2004,08,05,02,53,15.70
2004,08,05,02,54,15.70
2004,08,05,02,55,15.80
2004,08,05,02,56,15.80
2004,08,05,02,57,15.80
2004,08,05,02,58,15.80
2004,08,05,02,59,15.80
2004,08,05,03,00,15.70
2004,08,05,03,01,15.70
2004,08,05,03,02,15.60
2004,08,05,03,03,15.60
2004,08,05,03,04,15.60
2004,08,05,03,05,15.50
2004,08,05,03,06,15.50
2004,08,05,03,07,15.40
2004,08,05,03,08,15.30
2004,08,05,03,09,15.30
2004,08,05,03,10,15.20
2004,08,05,03,11,15.10
2004,08,05,03,12,15.00
2004,08,05,03,13,15.00
2004,08,05,03,14,14.90
2004,08,05,03,15,14.90
2004,08,05,03,16,14.80
2004,08,05,03,17,14.80
2004,08,05,03,18,14.80
2004,08,05,03,19,14.80
2004,08,05,03,20,14.80
2004,08,05,03,21,14.80
2004,08,05,03,22,14.80
2004,08,05,03,23,14.80
2004,08,05,03,24,14.80
2004,08,05,03,25,14.90
2004,08,05,03,26,14.90
2004,08,05,03,27,15.00
2004,08,05,03,28,15.10
2004,08,05,03,29,15.10
2004,08,05,03,30,15.10
2004,08,05,03,31,15.20
2004,08,05,03,32,15.20
2004,08,05,03,33,15.20
2004,08,05,03,34,15.20
2004,08,05,03,35,15.20
2004,08,05,03,36,15.10
2004,08,05,03,37,15.10
2004,08,05,03,38,15.20
2004,08,05,03,39,15.10
2004,08,05,03,40,15.10
2004,08,05,03,41,15.10
2004,08,05,03,42,15.10
2004,08,05,03,43,15.10
2004,08,05,03,44,15.20
2004,08,05,03,45,15.20
2004,08,05,03,46,15.20
2004,08,05,03,47,15.30
2004,08,05,03,48,15.30
2004,08,05,03,49,15.30
2004,08,05,03,50,15.30
2004,08,05,03,51,15.40
2004,08,05,03,52,15.50
2004,08,05,03,53,15.50
2004,08,05,03,54,15.60
2004,08,05,03,55,15.60
2004,08,05,03,56,15.60
2004,08,05,03,57,15.60
2004,08,05,03,58,15.60
2004,08,05,03,59,15.60
2004,08,05,04,00,15.60
2004,08,05,04,01,15.60
2004,08,05,04,02,15.60
2004,08,05,04,03,15.70
2004,08,05,04,04,15.60
2004,08,05,04,05,15.60
2004,08,05,04,06,15.60
2004,08,05,04,07,15.50
2004,08,05,04,08,15.50
2004,08,05,04,09,15.40
2004,08,05,04,10,15.40
2004,08,05,04,11,15.50
2004,08,05,04,12,15.40
2004,08,05,04,13,15.50
2004,08,05,04,14,15.50
2004,08,05,04,15,15.50
2004,08,05,04,16,15.50
2004,08,05,04,17,15.60
2004,08,05,04,18,15.60
2004,08,05,04,19,15.50
2004,08,05,04,20,15.50
2004,08,05,04,21,15.40
2004,08,05,04,22,15.40
2004,08,05,04,23,15.30
2004,08,05,04,24,15.30
2004,08,05,04,25,15.30
2004,08,05,04,26,15.30
2004,08,05,04,27,15.30
2004,08,05,04,28,15.30
2004,08,05,04,29,15.20
2004,08,05,04,30,15.20
2004,08,05,04,31,15.20
2004,08,05,04,32,15.20
2004,08,05,04,33,15.10
2004,08,05,04,34,15.10
2004,08,05,04,35,15.10
2004,08,05,04,36,15.10
2004,08,05,04,37,15.00
2004,08,05,04,38,15.00
2004,08,05,04,39,15.00
2004,08,05,04,40,15.10
2004,08,05,04,41,15.10
2004,08,05,04,42,15.10
2004,08,05,04,43,15.10
2004,08,05,04,44,15.00
2004,08,05,04,45,15.00
2004,08,05,04,46,15.00
2004,08,05,04,47,15.00
2004,08,05,04,48,15.00
2004,08,05,04,49,14.90
2004,08,05,04,50,14.90
2004,08,05,04,51,14.90
2004,08,05,04,52,14.90
2004,08,05,04,53,14.90
2004,08,05,04,54,14.90
2004,08,05,04,55,14.80
2004,08,05,04,56,14.80
2004,08,05,04,57,14.80
2004,08,05,04,58,14.80
2004,08,05,04,59,14.80
2004,08,05,05,00,14.80
2004,08,05,05,01,14.80
2004,08,05,05,02,14.80
2004,08,05,05,03,14.80
2004,08,05,05,04,14.80
2004,08,05,05,05,14.80
2004,08,05,05,06,14.80
2004,08,05,05,07,14.80
2004,08,05,05,08,14.80
2004,08,05,05,09,14.80
2004,08,05,05,10,14.80
2004,08,05,05,11,14.80
2004,08,05,05,12,14.80
2004,08,05,05,13,14.80
2004,08,05,05,14,14.80
2004,08,05,05,15,14.80
2004,08,05,05,16,14.70
2004,08,05,05,17,14.50
2004,08,05,05,18,14.40
2004,08,05,05,19,14.20
2004,08,05,05,20,14.10
2004,08,05,05,21,14.00
2004,08,05,05,22,14.00
2004,08,05,05,23,13.90
2004,08,05,05,24,13.90
2004,08,05,05,25,13.80
2004,08,05,05,26,13.80
2004,08,05,05,27,13.70
2004,08,05,05,28,13.70
2004,08,05,05,29,13.70
2004,08,05,05,30,13.70
2004,08,05,05,31,13.80
2004,08,05,05,32,13.80
2004,08,05,05,33,13.80
2004,08,05,05,34,13.80
2004,08,05,05,35,13.80
2004,08,05,05,36,13.70
2004,08,05,05,37,13.80
2004,08,05,05,38,13.80
2004,08,05,05,39,13.80
2004,08,05,05,40,13.80
2004,08,05,05,41,13.80
2004,08,05,05,42,13.80
2004,08,05,05,43,13.70
2004,08,05,05,44,13.70
2004,08,05,05,45,13.70
2004,08,05,05,46,13.70
2004,08,05,05,47,13.70
2004,08,05,05,48,13.70
2004,08,05,05,49,13.70
2004,08,05,05,50,13.70
2004,08,05,05,51,13.70
2004,08,05,05,52,13.70
2004,08,05,05,53,13.60
2004,08,05,05,54,13.60
2004,08,05,05,55,13.50
2004,08,05,05,56,13.50
2004,08,05,05,57,13.50
2004,08,05,05,58,13.50
2004,08,05,05,59,13.50
2004,08,05,06,00,13.50
2004,08,05,06,01,13.50
2004,08,05,06,02,13.50
2004,08,05,06,03,13.50
2004,08,05,06,04,13.40
2004,08,05,06,05,13.40
2004,08,05,06,06,13.40
2004,08,05,06,07,13.40
2004,08,05,06,08,13.40
2004,08,05,06,09,13.40
2004,08,05,06,10,13.40
2004,08,05,06,11,13.40
2004,08,05,06,12,13.40
2004,08,05,06,13,13.30
2004,08,05,06,14,13.30
2004,08,05,06,15,13.20
2004,08,05,06,16,13.30
2004,08,05,06,17,13.30
2004,08,05,06,18,13.30
2004,08,05,06,19,13.30
2004,08,05,06,20,13.30
2004,08,05,06,21,13.30
2004,08,05,06,22,13.20
2004,08,05,06,23,13.20
2004,08,05,06,24,13.20
2004,08,05,06,25,13.20
2004,08,05,06,26,13.20
2004,08,05,06,27,13.20
2004,08,05,06,28,13.30
2004,08,05,06,29,13.30
2004,08,05,06,30,13.30
2004,08,05,06,31,13.30
2004,08,05,06,32,13.30
2004,08,05,06,33,13.30
2004,08,05,06,34,13.30
2004,08,05,06,35,13.30
2004,08,05,06,36,13.30
2004,08,05,06,37,13.30
2004,08,05,06,38,13.30
2004,08,05,06,39,13.30
2004,08,05,06,40,13.30
2004,08,05,06,41,13.30
2004,08,05,06,42,13.30
2004,08,05,06,43,13.30
2004,08,05,06,44,13.30
2004,08,05,06,45,13.40
2004,08,05,06,46,13.40
2004,08,05,06,47,13.40
2004,08,05,06,48,13.40
2004,08,05,06,49,13.40
2004,08,05,06,50,13.40
2004,08,05,06,51,13.40
2004,08,05,06,52,13.50
2004,08,05,06,53,13.50
2004,08,05,06,54,13.50
2004,08,05,06,55,13.50
2004,08,05,06,56,13.60
2004,08,05,06,57,13.60
2004,08,05,06,58,13.60
2004,08,05,06,59,13.60
2004,08,05,07,00,13.60
2004,08,05,07,01,13.50
2004,08,05,07,02,13.50
2004,08,05,07,03,13.50
2004,08,05,07,04,13.50
2004,08,05,07,05,13.40
2004,08,05,07,06,13.40
2004,08,05,07,07,13.50
2004,08,05,07,08,13.50
2004,08,05,07,09,13.40
2004,08,05,07,10,13.40
2004,08,05,07,11,13.40
2004,08,05,07,12,13.40
2004,08,05,07,13,13.40
2004,08,05,07,14,13.40
2004,08,05,07,15,13.50
2004,08,05,07,16,13.50
2004,08,05,07,17,13.50
2004,08,05,07,18,13.50
2004,08,05,07,19,13.50
2004,08,05,07,20,13.40
2004,08,05,07,21,13.50
2004,08,05,07,22,13.50
2004,08,05,07,23,13.60
2004,08,05,07,24,13.60
2004,08,05,07,25,13.70
2004,08,05,07,26,13.70
2004,08,05,07,27,13.60
2004,08,05,07,28,13.60
2004,08,05,07,29,13.50
2004,08,05,07,30,13.60
2004,08,05,07,31,13.60
2004,08,05,07,32,13.70
2004,08,05,07,33,13.70
2004,08,05,07,34,13.70
2004,08,05,07,35,13.80
2004,08,05,07,36,13.90
2004,08,05,07,37,14.00
2004,08,05,07,38,14.00
2004,08,05,07,39,13.90
2004,08,05,07,40,13.90
2004,08,05,07,41,13.90
2004,08,05,07,42,13.90
2004,08,05,07,43,13.90
2004,08,05,07,44,13.90
2004,08,05,07,45,13.90
2004,08,05,07,46,13.90
2004,08,05,07,47,13.90
2004,08,05,07,48,13.80
2004,08,05,07,49,13.80
2004,08,05,07,50,13.70
2004,08,05,07,51,13.70
2004,08,05,07,52,13.70
2004,08,05,07,53,13.70
2004,08,05,07,54,13.70
2004,08,05,07,55,13.70
2004,08,05,07,56,13.70
2004,08,05,07,57,13.80
2004,08,05,07,58,13.90
2004,08,05,07,59,13.90
2004,08,05,08,00,13.90
2004,08,05,08,01,13.90
2004,08,05,08,02,13.90
2004,08,05,08,03,14.10
2004,08,05,08,04,14.20
2004,08,05,08,05,14.30
2004,08,05,08,06,14.40
2004,08,05,08,07,14.60
2004,08,05,08,08,14.70
2004,08,05,08,09,14.80
2004,08,05,08,10,14.80
2004,08,05,08,11,14.80
2004,08,05,08,12,14.90
2004,08,05,08,13,15.00
2004,08,05,08,14,15.10
2004,08,05,08,15,15.20
2004,08,05,08,16,15.20
2004,08,05,08,17,15.20
2004,08,05,08,18,15.30
2004,08,05,08,19,15.30
2004,08,05,08,20,15.30
2004,08,05,08,21,15.20
2004,08,05,08,22,15.20
2004,08,05,08,23,15.20
2004,08,05,08,24,15.30
2004,08,05,08,25,15.30
2004,08,05,08,26,15.30
2004,08,05,08,27,15.40
2004,08,05,08,28,15.50
2004,08,05,08,29,15.60
2004,08,05,08,30,15.60
2004,08,05,08,31,15.60
2004,08,05,08,32,15.40
2004,08,05,08,33,15.40
2004,08,05,08,34,15.30
2004,08,05,08,35,15.40
2004,08,05,08,36,15.40
2004,08,05,08,37,15.30
2004,08,05,08,38,15.40
2004,08,05,08,39,15.40
2004,08,05,08,40,15.40
2004,08,05,08,41,15.30
2004,08,05,08,42,15.30
2004,08,05,08,43,15.30
2004,08,05,08,44,15.30
2004,08,05,08,45,15.30
2004,08,05,08,46,15.30
2004,08,05,08,47,15.40
2004,08,05,08,48,15.50
2004,08,05,08,49,15.50
2004,08,05,08,50,15.60
2004,08,05,08,51,15.60
2004,08,05,08,52,15.70
2004,08,05,08,53,15.70
2004,08,05,08,54,15.80
2004,08,05,08,55,16.00
2004,08,05,08,56,16.10
2004,08,05,08,57,16.20
2004,08,05,08,58,16.20
2004,08,05,08,59,16.20
2004,08,05,09,00,16.30
2004,08,05,09,01,16.40
2004,08,05,09,02,16.40
2004,08,05,09,03,16.50
2004,08,05,09,04,16.60
2004,08,05,09,05,16.60
2004,08,05,09,06,16.70
2004,08,05,09,07,16.70
2004,08,05,09,08,16.80
2004,08,05,09,09,16.80
2004,08,05,09,10,16.80
2004,08,05,09,11,16.90
2004,08,05,09,12,16.90
2004,08,05,09,13,17.00
2004,08,05,09,14,16.90
2004,08,05,09,15,17.00
2004,08,05,09,16,17.00
2004,08,05,09,17,17.10
2004,08,05,09,18,17.10
2004,08,05,09,19,17.10
2004,08,05,09,20,17.20
2004,08,05,09,21,17.30
2004,08,05,09,22,17.30
2004,08,05,09,23,17.30
2004,08,05,09,24,17.30
2004,08,05,09,25,17.40
2004,08,05,09,26,17.50
2004,08,05,09,27,17.50
2004,08,05,09,28,17.50
2004,08,05,09,29,17.50
2004,08,05,09,30,17.50
2004,08,05,09,31,17.60
2004,08,05,09,32,17.70
2004,08,05,09,33,17.80
2004,08,05,09,34,17.90
2004,08,05,09,35,18.00
2004,08,05,09,36,18.10
2004,08,05,09,37,18.20
2004,08,05,09,38,18.20
2004,08,05,09,39,18.30
2004,08,05,09,40,18.40
2004,08,05,09,41,18.40
2004,08,05,09,42,18.50
2004,08,05,09,43,18.60
2004,08,05,09,44,18.70
2004,08,05,09,45,18.80
2004,08,05,09,46,18.90
2004,08,05,09,47,18.90
2004,08,05,09,48,19.00
2004,08,05,09,49,19.10
2004,08,05,09,50,19.30
2004,08,05,09,51,19.40
2004,08,05,09,52,19.50
2004,08,05,09,53,19.70
2004,08,05,09,54,19.90
2004,08,05,09,55,20.10
2004,08,05,09,56,20.10
2004,08,05,09,57,20.20
2004,08,05,09,58,20.10
2004,08,05,09,59,20.20
2004,08,05,10,00,20.10
2004,08,05,10,01,20.30
2004,08,05,10,02,20.40
2004,08,05,10,03,20.40
2004,08,05,10,04,20.50
2004,08,05,10,05,20.50
2004,08,05,10,06,20.60
2004,08,05,10,07,20.50
2004,08,05,10,08,20.60
2004,08,05,10,09,20.60
2004,08,05,10,10,20.70
2004,08,05,10,11,20.60
2004,08,05,10,12,20.60
2004,08,05,10,13,20.70
2004,08,05,10,14,20.70
2004,08,05,10,15,20.80
2004,08,05,10,16,20.80
2004,08,05,10,17,20.90
2004,08,05,10,18,20.90
2004,08,05,10,19,20.80
2004,08,05,10,20,20.90
2004,08,05,10,21,21.00
2004,08,05,10,22,20.80
2004,08,05,10,23,21.00
2004,08,05,10,24,21.10
2004,08,05,10,25,21.20
2004,08,05,10,26,21.20
2004,08,05,10,27,21.20
2004,08,05,10,28,21.20
2004,08,05,10,29,21.20
2004,08,05,10,30,21.30
2004,08,05,10,31,21.20
2004,08,05,10,32,21.10
2004,08,05,10,33,21.20
2004,08,05,10,34,21.00
2004,08,05,10,35,20.90
2004,08,05,10,36,20.90
2004,08,05,10,37,20.90
2004,08,05,10,38,20.90
2004,08,05,10,39,20.80
2004,08,05,10,40,20.90
2004,08,05,10,41,20.80
2004,08,05,10,42,20.90
2004,08,05,10,43,20.90
2004,08,05,10,44,20.80
2004,08,05,10,45,20.90
2004,08,05,10,46,20.90
2004,08,05,10,47,21.00
2004,08,05,10,48,20.90
2004,08,05,10,49,20.90
2004,08,05,10,50,20.90
2004,08,05,10,51,20.90
2004,08,05,10,52,20.90
2004,08,05,10,53,21.00
2004,08,05,10,54,21.00
2004,08,05,10,55,21.00
2004,08,05,10,56,21.00
2004,08,05,10,57,21.10
2004,08,05,10,58,21.10
2004,08,05,10,59,21.00
2004,08,05,11,00,21.10
2004,08,05,11,01,21.10
2004,08,05,11,02,21.10
2004,08,05,11,03,21.00
2004,08,05,11,04,21.00
2004,08,05,11,05,21.20
2004,08,05,11,06,21.30
2004,08,05,11,07,21.40
2004,08,05,11,08,21.40
2004,08,05,11,09,21.60
2004,08,05,11,10,21.60
2004,08,05,11,11,21.70
2004,08,05,11,12,21.80
2004,08,05,11,13,21.90
2004,08,05,11,14,22.10
2004,08,05,11,15,22.20
2004,08,05,11,16,22.10
2004,08,05,11,17,22.10
2004,08,05,11,18,22.10
2004,08,05,11,19,22.20
2004,08,05,11,20,22.40
2004,08,05,11,21,22.40
2004,08,05,11,22,22.50
2004,08,05,11,23,22.50
2004,08,05,11,24,22.50
2004,08,05,11,25,22.40
2004,08,05,11,26,22.20
2004,08,05,11,27,22.00
2004,08,05,11,28,22.00
2004,08,05,11,29,22.10
2004,08,05,11,30,22.20
2004,08,05,11,31,22.10
2004,08,05,11,32,21.90
2004,08,05,11,33,21.60
2004,08,05,11,34,21.70
2004,08,05,11,35,21.60
2004,08,05,11,36,21.50
2004,08,05,11,37,21.50
2004,08,05,11,38,21.50
2004,08,05,11,39,21.60
2004,08,05,11,40,21.70
2004,08,05,11,41,21.70
2004,08,05,11,42,21.70
2004,08,05,11,43,21.60
2004,08,05,11,44,21.70
2004,08,05,11,45,21.70
2004,08,05,11,46,21.70
2004,08,05,11,47,21.60
2004,08,05,11,48,21.60
2004,08,05,11,49,21.90
2004,08,05,11,50,22.00
2004,08,05,11,51,22.00
2004,08,05,11,52,21.90
2004,08,05,11,53,22.00
2004,08,05,11,54,22.00
2004,08,05,11,55,21.70
2004,08,05,11,56,21.40
2004,08,05,11,57,21.30
2004,08,05,11,58,21.30
2004,08,05,11,59,21.20
2004,08,05,12,00,21.30
2004,08,05,12,01,21.50
2004,08,05,12,02,21.30
2004,08,05,12,03,20.90
2004,08,05,12,04,20.90
2004,08,05,12,05,20.60
2004,08,05,12,06,20.60
2004,08,05,12,07,20.60
2004,08,05,12,08,20.70
2004,08,05,12,09,20.80
2004,08,05,12,10,20.80
2004,08,05,12,11,20.90
2004,08,05,12,12,20.80
2004,08,05,12,13,20.90
2004,08,05,12,14,20.70
2004,08,05,12,15,20.60
2004,08,05,12,16,20.50
2004,08,05,12,17,20.80
2004,08,05,12,18,20.80
2004,08,05,12,19,20.90
2004,08,05,12,20,21.00
2004,08,05,12,21,21.10
2004,08,05,12,22,21.20
2004,08,05,12,23,21.30
2004,08,05,12,24,21.30
2004,08,05,12,25,21.50
2004,08,05,12,26,21.40
2004,08,05,12,27,21.20
2004,08,05,12,28,21.10
2004,08,05,12,29,21.00
2004,08,05,12,30,21.00
2004,08,05,12,31,21.00
2004,08,05,12,32,21.00
2004,08,05,12,33,21.10
2004,08,05,12,34,21.20
2004,08,05,12,35,21.20
2004,08,05,12,36,21.00
2004,08,05,12,37,20.90
2004,08,05,12,38,20.80
2004,08,05,12,39,20.80
2004,08,05,12,40,20.70
2004,08,05,12,41,20.70
2004,08,05,12,42,20.70
2004,08,05,12,43,20.60
2004,08,05,12,44,20.60
2004,08,05,12,45,20.60
2004,08,05,12,46,20.50
2004,08,05,12,47,20.60
2004,08,05,12,48,20.70
2004,08,05,12,49,20.60
2004,08,05,12,50,20.70
2004,08,05,12,51,20.80
2004,08,05,12,52,20.90
2004,08,05,12,53,21.00
2004,08,05,12,54,21.10
2004,08,05,12,55,21.20
2004,08,05,12,56,21.20
2004,08,05,12,57,21.20
2004,08,05,12,58,21.20
2004,08,05,12,59,21.20
2004,08,05,13,00,21.20
2004,08,05,13,01,20.80
2004,08,05,13,02,20.70
2004,08,05,13,03,20.70
2004,08,05,13,04,20.70
2004,08,05,13,05,20.40
2004,08,05,13,06,20.20
2004,08,05,13,07,20.20
2004,08,05,13,08,20.20
2004,08,05,13,09,20.20
2004,08,05,13,10,20.10
2004,08,05,13,11,20.20
2004,08,05,13,12,19.90
2004,08,05,13,13,20.10
2004,08,05,13,14,20.30
2004,08,05,13,15,20.50
2004,08,05,13,16,20.40
2004,08,05,13,17,20.50
2004,08,05,13,18,20.70
2004,08,05,13,19,20.60
2004,08,05,13,20,20.60
2004,08,05,13,21,20.50
2004,08,05,13,22,20.20
2004,08,05,13,23,20.00
2004,08,05,13,24,19.90
2004,08,05,13,25,19.50
2004,08,05,13,26,19.50
2004,08,05,13,27,19.60
2004,08,05,13,28,19.70
2004,08,05,13,29,19.90
2004,08,05,13,30,20.00
2004,08,05,13,31,20.00
2004,08,05,13,32,19.80
2004,08,05,13,33,19.90
2004,08,05,13,34,19.60
2004,08,05,13,35,19.40
2004,08,05,13,36,19.20
2004,08,05,13,37,19.30
2004,08,05,13,38,19.40
2004,08,05,13,39,19.60
2004,08,05,13,40,19.90
2004,08,05,13,41,20.10
2004,08,05,13,42,20.20
2004,08,05,13,43,20.20
2004,08,05,13,44,19.90
2004,08,05,13,45,19.80
2004,08,05,13,46,19.90
2004,08,05,13,47,19.90
2004,08,05,13,48,20.10
2004,08,05,13,49,20.20
2004,08,05,13,50,20.30
2004,08,05,13,51,20.10
2004,08,05,13,52,19.80
2004,08,05,13,53,19.60
2004,08,05,13,54,19.30
2004,08,05,13,55,19.10
2004,08,05,13,56,19.00
2004,08,05,13,57,18.90
2004,08,05,13,58,18.90
2004,08,05,13,59,18.70
2004,08,05,14,00,18.70
2004,08,05,14,01,18.70
2004,08,05,14,02,18.70
2004,08,05,14,03,18.40
2004,08,05,14,04,18.20
2004,08,05,14,05,18.10
2004,08,05,14,06,18.00
2004,08,05,14,07,18.00
2004,08,05,14,08,18.10
2004,08,05,14,09,18.20
2004,08,05,14,10,18.20
2004,08,05,14,11,18.30
2004,08,05,14,12,18.30
2004,08,05,14,13,18.30
2004,08,05,14,14,18.20
2004,08,05,14,15,18.10
2004,08,05,14,16,18.20
2004,08,05,14,17,18.20
2004,08,05,14,18,18.40
2004,08,05,14,19,18.70
2004,08,05,14,20,18.70
2004,08,05,14,21,18.50
2004,08,05,14,22,18.50
2004,08,05,14,23,18.40
2004,08,05,14,24,18.40
2004,08,05,14,25,18.50
2004,08,05,14,26,18.40
2004,08,05,14,27,18.40
2004,08,05,14,28,18.40
2004,08,05,14,29,18.60
2004,08,05,14,30,18.50
2004,08,05,14,31,18.40
2004,08,05,14,32,18.50
2004,08,05,14,33,18.50
2004,08,05,14,34,18.50
2004,08,05,14,35,18.20
2004,08,05,14,36,18.10
2004,08,05,14,37,18.10
2004,08,05,14,38,18.20
2004,08,05,14,39,18.30
2004,08,05,14,40,18.30
2004,08,05,14,41,18.20
2004,08,05,14,42,18.00
2004,08,05,14,43,18.00
2004,08,05,14,44,18.10
2004,08,05,14,45,18.30
2004,08,05,14,46,18.50
2004,08,05,14,47,18.50
2004,08,05,14,48,18.60
2004,08,05,14,49,18.70
2004,08,05,14,50,18.50
2004,08,05,14,51,18.50
2004,08,05,14,52,18.60
2004,08,05,14,53,18.60
2004,08,05,14,54,18.50
2004,08,05,14,55,18.50
2004,08,05,14,56,18.50
2004,08,05,14,57,18.60
2004,08,05,14,58,18.60
2004,08,05,14,59,18.70
2004,08,05,15,00,19.00
2004,08,05,15,01,18.80
2004,08,05,15,02,18.70
2004,08,05,15,03,18.80
2004,08,05,15,04,18.70
2004,08,05,15,05,18.60
2004,08,05,15,06,18.50
2004,08,05,15,07,18.60
2004,08,05,15,08,18.60
2004,08,05,15,09,18.50
2004,08,05,15,10,18.60
2004,08,05,15,11,18.70
2004,08,05,15,12,18.70
2004,08,05,15,13,18.60
2004,08,05,15,14,18.60
2004,08,05,15,15,18.50
2004,08,05,15,16,18.60
2004,08,05,15,17,18.70
2004,08,05,15,18,18.60
2004,08,05,15,19,18.70
2004,08,05,15,20,18.70
2004,08,05,15,21,18.70
2004,08,05,15,22,18.70
2004,08,05,15,23,18.60
2004,08,05,15,24,18.50
2004,08,05,15,25,18.50
2004,08,05,15,26,18.40
2004,08,05,15,27,18.50
2004,08,05,15,28,18.60
2004,08,05,15,29,18.60
2004,08,05,15,30,18.60
2004,08,05,15,31,18.60
2004,08,05,15,32,18.50
2004,08,05,15,33,18.60
2004,08,05,15,34,18.70
2004,08,05,15,35,18.80
2004,08,05,15,36,18.90
2004,08,05,15,37,19.00
2004,08,05,15,38,19.00
2004,08,05,15,39,18.90
2004,08,05,15,40,18.90
2004,08,05,15,41,18.70
2004,08,05,15,42,18.70
2004,08,05,15,43,18.70
2004,08,05,15,44,18.90
2004,08,05,15,45,19.10
2004,08,05,15,46,19.20
2004,08,05,15,47,19.30
2004,08,05,15,48,19.60
2004,08,05,15,49,19.40
2004,08,05,15,50,19.40
2004,08,05,15,51,19.30
2004,08,05,15,52,19.20
2004,08,05,15,53,19.20
2004,08,05,15,54,19.20
2004,08,05,15,55,19.20
2004,08,05,15,56,19.50
2004,08,05,15,57,19.50
2004,08,05,15,58,19.40
2004,08,05,15,59,19.50
2004,08,05,16,00,19.50
2004,08,05,16,01,19.40
2004,08,05,16,02,19.30
2004,08,05,16,03,19.40
2004,08,05,16,04,19.20
2004,08,05,16,05,19.10
2004,08,05,16,06,19.00
2004,08,05,16,07,19.00
2004,08,05,16,08,18.80
2004,08,05,16,09,18.90
2004,08,05,16,10,19.00
2004,08,05,16,11,19.10
2004,08,05,16,12,19.00
2004,08,05,16,13,19.20
2004,08,05,16,14,19.40
2004,08,05,16,15,19.50
2004,08,05,16,16,20.00
2004,08,05,16,17,20.20
2004,08,05,16,18,20.40
2004,08,05,16,19,20.60
2004,08,05,16,20,20.60
2004,08,05,16,21,20.60
2004,08,05,16,22,20.50
2004,08,05,16,23,20.30
2004,08,05,16,24,20.10
2004,08,05,16,25,20.10
2004,08,05,16,26,20.10
2004,08,05,16,27,20.10
2004,08,05,16,28,20.00
2004,08,05,16,29,19.90
2004,08,05,16,30,19.90
2004,08,05,16,31,19.80
2004,08,05,16,32,19.90
2004,08,05,16,33,19.90
2004,08,05,16,34,19.80
2004,08,05,16,35,19.60
2004,08,05,16,36,19.60
2004,08,05,16,37,19.60
2004,08,05,16,38,19.50
2004,08,05,16,39,19.10
2004,08,05,16,40,19.10
2004,08,05,16,41,19.20
2004,08,05,16,42,19.30
2004,08,05,16,43,19.30
2004,08,05,16,44,19.40
2004,08,05,16,45,19.40
2004,08,05,16,46,19.40
2004,08,05,16,47,19.40
2004,08,05,16,48,19.30
2004,08,05,16,49,19.10
2004,08,05,16,50,19.10
2004,08,05,16,51,19.20
2004,08,05,16,52,19.20
2004,08,05,16,53,19.30
2004,08,05,16,54,19.40
2004,08,05,16,55,19.50
2004,08,05,16,56,19.50
2004,08,05,16,57,19.60
2004,08,05,16,58,19.50
2004,08,05,16,59,19.40
2004,08,05,17,00,19.30
2004,08,05,17,01,19.20
2004,08,05,17,02,19.10
2004,08,05,17,03,19.10
2004,08,05,17,04,19.10
2004,08,05,17,05,19.10
2004,08,05,17,06,19.20
2004,08,05,17,07,19.40
2004,08,05,17,08,19.40
2004,08,05,17,09,19.40
2004,08,05,17,10,19.40
2004,08,05,17,11,19.30
2004,08,05,17,12,19.30
2004,08,05,17,13,19.30
2004,08,05,17,14,19.20
2004,08,05,17,15,19.10
2004,08,05,17,16,19.10
2004,08,05,17,17,19.10
2004,08,05,17,18,19.10
2004,08,05,17,19,19.10